Home   Weather   Arviat   Past weeks

Flag for Canada Past Weather in Arviat, Nunavut, Canada — Yesterday and Last 2 Weeks

36 °F

More clouds than sun.

Feels Like: 26 °F
Forecast: 34 / 36 °F
Wind: 15 mph from East

Location: Arviat Airport

Current Time: Oct 23, 2016 at 3:29:27 PM

Latest Report: Oct 23, 2016 at 3:00 PM

Visibility: 15 mi

Pressure: 30.21 "Hg

Humidity: 93%

Dew Point: 34 °F

Location of ArviatLocation

Past Weather in Arviat — Graph


Arviat Temperature Yesterday

Maximum temperature yesterday: 36 °F (at 12:00 AM)
Minimum temperature yesterday: 34 °F (at 8:00 AM)
Average temperature yesterday: 35 °F

High & Low Weather Summary for the Past Weeks

High36 °F (Oct 8, 2:00 PM)100% (Oct 9, 2:00 AM)30.26 "Hg (Oct 9, 2:00 AM)
Low18 °F (Oct 14, 9:02 PM)56% (Oct 8, 2:00 PM)29.62 "Hg (Oct 12, 11:02 PM)
Average29 °F89%29.99 "Hg
* Reported Oct 8 2:00 PM — Oct 23 2:00 PM, Arviat, Weather by CustomWeather, © 2016

Note: Actual official high and low records may vary slightly from our data, if they occured in-between our weather recording intervals... More about our weather records


Arviat Weather History for the Previous 24 Hours

Scroll right to see more
Time TempWeatherWind HumidityBarometerVisibility
2:00 PM
Sun, Oct 23
34 °FLight snow. More clouds than sun.13 mph100%30.20 "Hg10 mi
1:00 PM34 °FLight snow. Mostly cloudy.17 mph100%30.19 "Hg10 mi
12:52 PM34 °FLight snow. Mostly cloudy.15 mph100%30.18 "Hg10 mi
12:00 PM34 °FLight snow. Mostly cloudy.16 mph100%30.17 "Hg10 mi
11:54 AM34 °FLight snow. Mostly cloudy.16 mph100%30.17 "Hg11 mi
11:00 AM34 °FLight snow. Mostly cloudy.17 mph100%30.16 "Hg7 mi
10:00 AM34 °FLight rain. Cloudy.22 mph100%30.14 "Hg10 mi
9:46 AM34 °FLight rain. Mostly cloudy.23 mph100%30.13 "Hg10 mi
9:00 AM34 °FLight rain. Cloudy.18 mph100%30.12 "Hg10 mi
8:00 AM34 °FLight rain. Overcast.16 mph100%30.10 "Hg9 mi
7:03 AM34 °FLight rain. Overcast.18 mph100%30.09 "Hg9 mi
6:02 AM36 °FLight rain. Passing clouds.22 mph87%30.07 "Hg9 mi
5:04 AM36 °FLight rain. Mostly cloudy.17 mph93%30.06 "Hg9 mi
4:00 AM36 °FMostly cloudy.20 mph93%30.04 "Hg9 mi
3:00 AM36 °FLight rain. Overcast.23 mph93%30.02 "Hg9 mi
2:00 AM36 °FLight rain. Mostly cloudy.24 mph93%30.01 "Hg9 mi
1:00 AM36 °FLight rain. Mostly cloudy.23 mph93%30.00 "Hg9 mi
12:00 AM36 °FLight rain. Mostly cloudy.22 mph93%29.99 "Hg9 mi
11:00 PM
Sat, Oct 22
36 °FOvercast.18 mph93%29.98 "Hg9 mi
10:59 PM34 °FOvercast.20 mph100%29.98 "Hg9 mi
10:00 PM34 °FLight rain. Mostly cloudy.21 mph100%29.97 "Hg7 mi
9:53 PM34 °FLight rain. Overcast.21 mph100%29.97 "Hg9 mi
9:00 PM34 °FLight rain. Mostly cloudy.20 mph100%29.97 "Hg8 mi
8:00 PM34 °FLight rain. Overcast.17 mph100%29.96 "Hg7 mi
7:57 PM34 °FLight rain. Overcast.17 mph100%29.96 "Hg7 mi
7:00 PM34 °FLight mixture of precip. Overcast.15 mph100%29.95 "Hg9 mi
6:00 PM34 °FLight snow. Low clouds.16 mph93%29.95 "Hg5 mi
5:58 PM34 °FLight snow. Low clouds.17 mph93%29.95 "Hg5 mi
5:00 PM34 °FLight snow. Mostly cloudy.17 mph93%29.94 "Hg9 mi
4:52 PM34 °FLight snow. Mostly cloudy.18 mph100%29.93 "Hg6 mi
4:01 PM34 °FLight snow. Cloudy.20 mph100%29.92 "Hg4 mi
3:00 PM34 °FLight snow. More clouds than sun.18 mph93%29.92 "Hg8 mi
Weather by CustomWeather, © 2016

See weather overviewHow to use our weather pages